Weather History for Lowell, ID

Change the Weather History Date:

Wednesday, July 17, 2013

  Actual Average Record
Temperature  
Mean Temperature 81 °F -  
Max Temperature 98 °F 87 °F 102 °F (2004)
Min Temperature 64 °F 54 °F 52 °F (2000)
Cooling Degree Days 16    
Growing Degree Days 31 (Base 50)    
Moisture  
Dew Point 59 °F    
Average Humidity 58    
Maximum Humidity 87    
Minimum Humidity 22    
Precipitation  
Precipitation 0.00 in - - ()
Sea Level Pressure  
Sea Level Pressure 29.87 in    
Wind  
Wind Speed 2 mph (North)    
Max Wind Speed 7 mph    
Max Gust Speed -    
Averages and records for this station are not official NWS values.
T = Trace of Precipitation, MM = Missing Value Source: NWS Daily Summary

Daily Weather History Graph

Daily Weather History Graph

Search for Another Location

Airport:

Trip Planner

Search our weather history database for the weather conditions in past years. The results will help you decide how hot, cold, wet, or windy it might be!

Date:

Astronomy

Jul. 17, 2013 Rise Set
Actual Time 6:08 AM MDT 9:28 PM MDT
Civil Twilight 5:31 AM MDT 10:05 PM MDT
Nautical Twilight 4:43 AM MDT 10:53 PM MDT
Astronomical Twilight 3:41 AM MDT 11:53 PM MDT
Moon 4:18 PM MDT (7/17) 1:24 AM MDT (7/17)
Length of Visible Light 16h 33m
Length of Day
15h 20m
Waxing Gibbous, 68% of the Moon is Illuminated
Jul 17
Waxing Gibbous
Jul 22
Full
Jul 29
Last Quarter
Aug 6
New
Aug 14
First Quarter

Hourly Weather History & Observations

Time (MDT) Temp. Heat Index Dew Point Humidity Pressure Visibility Wind Dir Wind Speed Gust Speed Precip Events Conditions
12:52 AM 73.0 °F - 62.1 °F 68% 29.75 in - Calm Calm - N/A   Unknown
1:52 AM 71.1 °F - 62.1 °F 73% 29.78 in - Calm Calm - N/A   Unknown
2:52 AM 69.1 °F - 61.0 °F 75% 29.80 in - North 3.5 mph - N/A   Unknown
3:52 AM 66.9 °F - 61.0 °F 81% 29.82 in - Calm Calm - N/A   Unknown
4:52 AM 66.0 °F - 61.0 °F 84% 29.84 in - North 3.5 mph - N/A   Unknown
5:52 AM 64.9 °F - 61.0 °F 87% 29.86 in - North 3.5 mph - N/A   Unknown
6:52 AM 64.9 °F - 60.1 °F 84% 29.87 in - North 3.5 mph - N/A   Unknown
7:52 AM 66.0 °F - 61.0 °F 84% 29.88 in - Calm Calm - N/A   Unknown
8:52 AM 69.1 °F - 62.1 °F 78% 29.89 in - Calm Calm - N/A   Unknown
9:52 AM 73.9 °F - 61.0 °F 64% 29.88 in - Calm Calm - N/A   Unknown
10:52 AM 79.0 °F - 60.1 °F 52% 29.87 in - Calm Calm - N/A   Unknown
11:52 AM 84.9 °F 85.0 °F 61.0 °F 44% 29.86 in - Calm Calm - N/A   Unknown
12:52 PM 91.0 °F 90.2 °F 59.0 °F 34% 29.86 in - Variable 6.9 mph - N/A   Unknown
1:52 PM 93.0 °F 92.7 °F 60.1 °F 33% 29.86 in - Variable 4.6 mph - N/A   Unknown
2:52 PM 96.1 °F 96.4 °F 61.0 °F 31% 29.86 in - Variable 3.5 mph - N/A   Unknown
3:52 PM 97.0 °F 95.7 °F 57.0 °F 26% 29.87 in - Variable 4.6 mph - N/A   Unknown
4:52 PM 98.1 °F 95.7 °F 53.1 °F 22% 29.87 in - Variable 3.5 mph - N/A   Unknown
5:52 PM 93.9 °F 92.9 °F 57.9 °F 30% 29.86 in - Calm Calm - N/A   Unknown
6:52 PM 84.0 °F 83.3 °F 57.0 °F 40% 29.88 in - Calm Calm - N/A   Unknown
7:52 PM 78.1 °F - 60.1 °F 54% 29.91 in - North 3.5 mph - N/A   Unknown
8:52 PM 75.9 °F - 57.9 °F 54% 29.93 in - North 3.5 mph - N/A   Unknown
9:52 PM 72.0 °F - 57.0 °F 59% 29.97 in - Calm Calm - N/A   Unknown
10:52 PM 70.0 °F - 57.0 °F 63% 30.00 in - Calm Calm - N/A   Unknown
11:52 PM 66.9 °F - 57.0 °F 70% 30.02 in - North 3.5 mph - N/A   Unknown